Flag for Cayman Islands Weather past 2 weeks in George Town, Cayman Islands

Now
75 °F

Passing clouds.


Feels Like: 75 °F
Forecast: 79 / 81 °F
Wind: 5 mph from East

Location: Owen Roberts Airportgrand Cayman

Current Time: Dec 20, 2014 at 8:29:31 AM

Latest Report: Dec 20, 2014 at 7:53 AM


Visibility: N/A

Pressure: 29.98 "Hg

Humidity: 83%

Dew point: 70 °F

Location of George TownLocation

Historic Weather in George Town — Graph

°F

George Town temperature yesterday

Maximum temperature yesterday: 84 °F (at 1:00 PM)
Minimum temperature yesterday: 77 °F (at 6:00 AM)
Average temperature yesterday: 80 °F

Past Weeks' High & Low Weather Summary

 TemperatureHumidityPressure
High84 °F (Dec 5, 11:52 AM)100% (Dec 12, 6:00 AM)30.09 "Hg (Dec 12, 6:00 AM)
Low72 °F (Dec 12, 7:00 AM)61% (Dec 11, 4:00 PM)29.92 "Hg (Dec 7, 3:54 PM)
Average78 °F78%30.00 "Hg
* Reported Dec 5 6:52 AM — Dec 20 6:54 AM, George Town, Weather by CustomWeather, © 2014

Note: Actual official high and low records may vary slightly from our data, if they occured in-between our weather recording intervals... More about our weather records

Advertising

George Town weather history for previous 24 hours

 ConditionsComfort  
Time TempWeatherWind HumidityBarometerVisibility
6:54 AM
Dec 20
73 °FPassing clouds.3 mph89%29.98 "HgN/A
5:57 AM75 °FClear.3 mph83%29.95 "Hg10 mi
9:52 PM
Dec 19
77 °FPassing clouds.7 mph94%29.98 "HgN/A
8:52 PM79 °FSprinkles. Passing clouds.6 mph89%29.98 "HgN/A
7:50 PM79 °FPassing clouds.5 mph89%29.95 "HgN/A
6:50 PM79 °FPassing clouds.6 mph89%29.95 "HgN/A
5:50 PM81 °FPassing clouds.7 mph79%29.92 "HgN/A
4:54 PM81 °FPassing clouds.13 mph79%29.92 "HgN/A
4:00 PM82 °FPassing clouds.12 mph74%29.92 "HgN/A
3:00 PM82 °FPassing clouds.13 mph74%29.92 "HgN/A
2:00 PM82 °FPassing clouds.14 mph74%29.92 "HgN/A
1:00 PM84 °FPassing clouds.17 mph70%29.95 "HgN/A
12:00 PM82 °FPassing clouds.15 mph74%29.98 "HgN/A
11:00 AM81 °FScattered clouds.17 mph79%30.01 "HgN/A
10:00 AM81 °FPartly sunny.18 mph84%30.01 "HgN/A
9:00 AM79 °FPartly sunny.15 mph89%30.01 "HgN/A
8:00 AM77 °FScattered clouds.10 mph94%29.98 "HgN/A
Weather by CustomWeather, © 2014

See weather overviewHow to use our weather pages